TimeCDT,TemperatureF,Dew PointF,Humidity,Sea Level PressureIn,VisibilityMPH,Wind Direction,Wind SpeedMPH,Gust SpeedMPH,PrecipitationIn,Events,Conditions,WindDirDegrees,DateUTC
12:15 AM,82.4,75.2,79,30.05,10.0,East,19.6,-,N/A,,Partly Cloudy,100,2012-10-11 05:15:00
12:35 AM,82.4,75.2,79,30.04,10.0,ESE,19.6,-,N/A,,Partly Cloudy,110,2012-10-11 05:35:00
1:35 AM,82.4,75.2,79,30.03,10.0,ESE,19.6,-,N/A,,Clear,120,2012-10-11 06:35:00
1:55 AM,82.4,75.2,79,30.03,10.0,ESE,19.6,-,N/A,,Clear,120,2012-10-11 06:55:00
2:35 AM,82.4,75.2,79,30.03,10.0,SE,19.6,-,N/A,,Scattered Clouds,130,2012-10-11 07:35:00
2:55 AM,82.4,75.2,79,30.02,10.0,ESE,18.4,-,N/A,,Scattered Clouds,120,2012-10-11 07:55:00
3:15 AM,82.4,75.2,79,30.02,10.0,ESE,18.4,-,N/A,,Scattered Clouds,120,2012-10-11 08:15:00
3:35 AM,82.4,75.2,79,30.03,10.0,ESE,18.4,-,N/A,,Mostly Cloudy,120,2012-10-11 08:35:00
3:55 AM,82.4,75.2,79,30.02,10.0,SE,16.1,-,N/A,,Mostly Cloudy,130,2012-10-11 08:55:00
4:15 AM,82.4,75.2,79,30.02,10.0,SE,17.3,-,N/A,,Mostly Cloudy,130,2012-10-11 09:15:00
4:35 AM,82.4,75.2,79,30.02,10.0,ESE,20.7,-,N/A,,Mostly Cloudy,120,2012-10-11 09:35:00
4:55 AM,82.4,75.2,79,30.02,10.0,SE,18.4,-,N/A,,Scattered Clouds,130,2012-10-11 09:55:00
5:15 AM,82.4,75.2,79,30.01,9.0,ESE,18.4,-,N/A,,Partly Cloudy,110,2012-10-11 10:15:00
5:35 AM,82.4,75.2,79,30.02,8.0,SE,27.6,-,N/A,,Mostly Cloudy,130,2012-10-11 10:35:00
5:50 AM,80.6,75.2,84,30.02,3.0,ESE,17.3,-,0.14,,Haze,120,2012-10-11 10:50:00
6:15 AM,82.4,75.2,79,30.03,10.0,SE,19.6,-,N/A,,Mostly Cloudy,130,2012-10-11 11:15:00
6:35 AM,82.4,75.2,79,30.04,10.0,SE,18.4,-,N/A,,Mostly Cloudy,130,2012-10-11 11:35:00
7:35 AM,82.4,75.2,79,30.05,10.0,ESE,18.4,-,N/A,,Scattered Clouds,120,2012-10-11 12:35:00
7:55 AM,82.4,75.2,79,30.06,10.0,SE,18.4,-,N/A,,Partly Cloudy,130,2012-10-11 12:55:00
8:15 AM,82.4,75.2,79,30.06,9.0,ESE,18.4,-,N/A,,Scattered Clouds,110,2012-10-11 13:15:00
8:35 AM,82.4,75.2,79,30.07,10.0,ESE,19.6,-,N/A,,Mostly Cloudy,110,2012-10-11 13:35:00
8:55 AM,82.4,75.2,79,30.08,10.0,ESE,20.7,-,N/A,,Overcast,110,2012-10-11 13:55:00
9:15 AM,82.4,75.2,79,30.08,10.0,ESE,20.7,-,N/A,,Mostly Cloudy,110,2012-10-11 14:15:00
9:35 AM,82.4,75.2,79,30.09,9.0,ESE,19.6,-,N/A,,Mostly Cloudy,110,2012-10-11 14:35:00
9:55 AM,82.4,75.2,79,30.10,10.0,ESE,20.7,-,N/A,,Mostly Cloudy,110,2012-10-11 14:55:00
10:15 AM,82.4,75.2,79,30.11,10.0,ESE,20.7,-,N/A,,Mostly Cloudy,110,2012-10-11 15:15:00
10:35 AM,82.4,75.2,79,30.11,10.0,ESE,19.6,-,N/A,,Scattered Clouds,110,2012-10-11 15:35:00
10:55 AM,82.4,75.2,79,30.12,10.0,ESE,21.9,-,N/A,,Scattered Clouds,110,2012-10-11 15:55:00
11:15 AM,82.4,75.2,79,30.11,10.0,ESE,20.7,-,N/A,,Scattered Clouds,110,2012-10-11 16:15:00
11:35 AM,82.4,75.2,79,30.11,10.0,ESE,19.6,-,N/A,,Partly Cloudy,110,2012-10-11 16:35:00
11:55 AM,82.4,75.2,79,30.11,10.0,ESE,20.7,-,N/A,,Scattered Clouds,110,2012-10-11 16:55:00
12:15 PM,82.4,73.4,74,30.11,10.0,ESE,20.7,-,N/A,,Scattered Clouds,110,2012-10-11 17:15:00
12:35 PM,82.4,73.4,74,30.10,10.0,ESE,20.7,-,N/A,,Partly Cloudy,110,2012-10-11 17:35:00
12:55 PM,82.4,73.4,74,30.10,10.0,ESE,20.7,-,N/A,,Partly Cloudy,110,2012-10-11 17:55:00
1:15 PM,82.4,73.4,74,30.09,10.0,East,21.9,-,N/A,,Partly Cloudy,100,2012-10-11 18:15:00
1:55 PM,82.4,73.4,74,30.08,10.0,ESE,20.7,-,N/A,,Partly Cloudy,110,2012-10-11 18:55:00
2:35 PM,82.4,75.2,79,30.06,10.0,ESE,19.6,-,N/A,,Scattered Clouds,110,2012-10-11 19:35:00
2:55 PM,82.4,73.4,74,30.06,10.0,ESE,20.7,-,N/A,,Partly Cloudy,110,2012-10-11 19:55:00
3:15 PM,82.4,73.4,74,30.06,10.0,East,18.4,-,N/A,,Clear,100,2012-10-11 20:15:00
3:35 PM,82.4,73.4,74,30.05,10.0,East,18.4,-,N/A,,Partly Cloudy,100,2012-10-11 20:35:00
3:55 PM,82.4,73.4,74,30.06,10.0,East,18.4,-,N/A,,Scattered Clouds,100,2012-10-11 20:55:00
4:15 PM,82.4,73.4,74,30.05,10.0,East,18.4,-,N/A,,Scattered Clouds,100,2012-10-11 21:15:00
4:35 PM,82.4,73.4,74,30.05,10.0,East,18.4,-,N/A,,Clear,100,2012-10-11 21:35:00
4:55 PM,82.4,73.4,74,30.05,10.0,East,16.1,-,N/A,,Partly Cloudy,90,2012-10-11 21:55:00
5:35 PM,82.4,73.4,74,30.05,10.0,East,17.3,-,N/A,,Scattered Clouds,100,2012-10-11 22:35:00
6:15 PM,82.4,73.4,74,30.04,10.0,East,16.1,-,N/A,,Partly Cloudy,90,2012-10-11 23:15:00
6:35 PM,82.4,73.4,74,30.04,10.0,East,17.3,-,N/A,,Partly Cloudy,90,2012-10-11 23:35:00
6:55 PM,82.4,73.4,74,30.05,10.0,East,18.4,-,N/A,,Scattered Clouds,90,2012-10-11 23:55:00
7:15 PM,82.4,73.4,74,30.05,-9999.0,East,17.3,-,N/A,,Scattered Clouds,80,2012-10-12 00:15:00
7:35 PM,82.4,73.4,74,30.05,10.0,East,16.1,-,N/A,,Scattered Clouds,100,2012-10-12 00:35:00
8:15 PM,82.4,73.4,74,30.06,10.0,East,16.1,-,N/A,,Mostly Cloudy,90,2012-10-12 01:15:00
8:35 PM,80.6,73.4,79,30.06,10.0,East,18.4,-,N/A,,Scattered Clouds,90,2012-10-12 01:35:00
8:55 PM,80.6,73.4,79,30.07,10.0,East,17.3,-,N/A,,Scattered Clouds,90,2012-10-12 01:55:00
9:15 PM,82.4,73.4,74,30.08,10.0,East,16.1,-,N/A,,Mostly Cloudy,90,2012-10-12 02:15:00
9:55 PM,82.4,73.4,74,30.08,10.0,East,18.4,-,N/A,,Scattered Clouds,90,2012-10-12 02:55:00
10:15 PM,82.4,73.4,74,30.09,10.0,East,19.6,-,N/A,,Scattered Clouds,100,2012-10-12 03:15:00
10:35 PM,82.4,71.6,70,30.09,10.0,East,19.6,-,N/A,,Partly Cloudy,90,2012-10-12 03:35:00
10:55 PM,82.4,73.4,74,30.09,10.0,East,18.4,-,N/A,,Partly Cloudy,100,2012-10-12 03:55:00
11:15 PM,82.4,71.6,70,30.09,10.0,East,18.4,-,N/A,,Partly Cloudy,100,2012-10-12 04:15:00
11:35 PM,82.4,71.6,70,30.09,10.0,ESE,18.4,-,N/A,,Scattered Clouds,110,2012-10-12 04:35:00